Regional Weather Roundup
Issued by NWS Mobile, AL

Home | Current Version | Previous Version | Text Only | Print | Product List | Glossary On
Versions: 1 2 3 4 5 6 7 8 9 10 11 12 13 14 15 16 17 18 19 20 21 22 23 24 25 26 27
000
ASUS44 KMOB 192013
RWRMOB
REGIONAL WEATHER ROUNDUP
NATIONAL WEATHER SERVICE MOBILE AL
300 PM CDT TUE SEP 19 2017

NOTE: "FAIR" INDICATES FEW OR NO CLOUDS BELOW 12,000 FEET WITH NO
      SIGNIFICANT WEATHER AND/OR OBSTRUCTIONS TO VISIBILITY.

  * THESE STATIONS ARE PART OF THE UNIVERSITY OF SOUTH ALABAMA
    MESONET AND ARE NOT UNDER NWS OR FAA QUALITY CONTROL.

ALZ061>064-192100-
COASTAL ALABAMA

CITY           SKY/WX    TMP DP  RH WIND       PRES   REMARKS
MOBILE REG APT CLOUDY    84  73  69 SW5       29.97F
BROOKLEY FIELD CLOUDY    86  74  67 NW5       29.97F
USA CAMPUS*    NOT AVBL
DOG RIVER*     NOT AVBL


CITY           SKY/WX    TMP DP  RH WIND       PRES   REMARKS
GULF SHORES    MOSUNNY   87  75  67 W14G21    29.96S HX  95

$$

ALZ051>060-192100-
INTERIOR SOUTHWEST AND SOUTH CENTRAL ALABAMA

CITY           SKY/WX    TMP DP  RH WIND       PRES   REMARKS
GREENVILLE     MOSUNNY   91  66  43 SW6       29.92F
EVERGREEN      MOSUNNY   90  71  53 CALM      29.93F HX  96
ATMORE*          N/A    N/A N/A N/A NW3         N/A
ANDALUSIA/OPP  MOSUNNY   92  71  50 W3        29.92F HX  98
ANDALUSIA*       N/A     90  70  51 CALM      29.94F HX  95
FLORALA APT    NOT AVBL
FLORALA*         N/A     90  70  51 SW3       30.60F HX  95

$$

FLZ001>006-192100-
WESTERN FLORIDA PANHANDLE

CITY           SKY/WX    TMP DP  RH WIND       PRES   REMARKS
PENSACOLA      PTSUNNY   85  72  65 SW8       29.95F
NAS PENSACOLA  CLOUDY    88  73  61 SW14      29.94F HX  95
MILTON         CLOUDY    86  74  67 SW6       29.94F
WHTNG S FIELD  PTSUNNY   89  75  63 VRB3      29.94F HX  99


CITY           SKY/WX    TMP DP  RH WIND       PRES   REMARKS
JAY*             N/A     86  73  66 SW3       29.93F
DUKE FIELD     MOSUNNY   87  72  61 S14       29.93F
CRESTVIEW      MOSUNNY   92  69  47 W5        29.94F HX  97
VALPARAISO     PTSUNNY   87  75  66 SW13G21   29.93F HX  96
DESTIN         SUNNY     88  75  65 SW8       29.94F HX  97

$$

MSZ076-079-192100-
INTERIOR SOUTHEAST MISSISSIPPI

CITY           SKY/WX    TMP DP  RH WIND       PRES   REMARKS
LEAKESVILLE*     N/A     82  75  78 SE3       29.97F
AGRICOLA*        N/A     84  75  74 NW3       29.96F

$$

MARINE OBSERVATIONS

STATION/POSITION TIME  TEMP    WIND        PRES    WAVE
                       AIR SEA DIR/SP/G            HT/PER
                 (UTC) (F)     (DEG/KT/KT) (MB)    (FT/S)
PASCAGOULA       1942   86     220/  6/ 11 1014.5F
PETIT BOIS ISLND 1948   84     240/  6/  8 1015.3F
GRAND BAY        1830   85     240/  4     1016.0F
KATRINA CUT      1930   83     260/  8     1014.9F
CEDAR POINT      1930   83     260/  8     1014.6F
E DAUPHIN ISLAND 1900   83     220/  8/ 10 1014.5F
MIDDLE BAY LIGHT 1930   85     220/  7     1014.6F
USCG MOBILE BAY  1948   81 83   20/  6/  8 1014.6F
STATE DOCKS      1948   82 81              1014.5F
MEAHER PARK      1930   81     290/  8     1015.2R
WEEKS BAY        1845   86                 1015.0F
FORT MORGAN      1948   83     270/  8/ 10   N/A
12 S ORANGE BCH  1950   82 84  280/  8/ 10 1014.3F   1
PENSACOLA BAY    1948   86 83              1014.3F
64 S DAUPHIN ISL 2000   84 83  240/  4/  6 1014.8
67 S FORT MORGAN 1930   82        CALM     1014.9F

$$

SELECTED LOCATIONS ACROSS THE REGION

CITY           SKY/WX    TMP DP  RH WIND       PRES   REMARKS
NEW ORLEANS    LGT RAIN  88  75  65 N8        29.94F HX  97
GULFPORT       SUNNY     88  73  61 S8        29.94F HX  95
PASCAGOULA AP  PTSUNNY   88  73  61 SW7       29.95F HX  95
PASCAGOULA*      N/A     84  77  79 CALM        N/A
HATTIESBURG    TSTM      81  77  88 S16G22    29.95R FOG
LAUREL         SUNNY     88  74  63 CALM      29.94F HX  96
MERIDIAN       SUNNY     93  69  45 SW5       29.92F HX  98
JACKSON        MOSUNNY   89  75  63 CALM      29.94F HX  99
MONTGOMERY     SUNNY     93  70  46 VRB6      29.91F HX  99
TROY           CLOUDY    86  73  65 E5        29.95F
ASHFORD*         N/A     90  70  51 CALM      29.94F HX  95
DOTHAN         MOSUNNY   91  71  51 W6        29.96F HX  97
PANAMA CITY    SUNNY     90  69  50 SW10      29.92F

$$





USA.gov is the U.S. government's official web portal to all federal, state and local government web resources and services.